User: anonymous   Login
Location: Dumpton Point
(51.3500°N, 1.4433°E)
Time: 09:15:38
(UTC+00:00)
Language:

Explorer 7 - Orbit

View from above orbital plane
View from above orbital plane
View from above satellite
View from above satellite

Ground track
Ground track

The orbit data is extracted from the following two-line orbital elements,

1    22U 59009A   22279.80368915  .00005583  00000-0  41486-3 0  9996
2    22  50.2814 109.7502 0133563 237.1780 121.6248 14.97538089351275
Epoch (UTC): 06 October 2022 19:17:18
Eccentricity: 0.0133563
inclination: 50.2814°
perigee height: 481 km
apogee height: 667 km
right ascension of ascending node: 109.7502°
argument of perigee: 237.1780°
revolutions per day: 14.97538089
mean anomaly at epoch: 121.6248°
orbit number at epoch: 35127

The dashed part of the orbit path shows where the satellite is in the earth's shadow,  

DLR